Theta_e
321 321 322 323 324 324 325 325 325 325 326 326 325 326 326 326 324 317 309 318 320 327 323 314 313 312 314 312 312 310 298 296 299 298 298 301 299 302 301 298 300 303 300 302 305
319 319 320 321 322 323 324 324 324 325 325 325 325 325 326 325 316 313 325 329 329 328 314 310 309 310 308 309 309 303 300 301 301 301 298 301 300 300 297 298 299 300 302 303 302
319 318 318 319 320 321 322 323 324 324 324 324 324 325 325 322 313 312 328 329 328 324 315 312 311 310 306 308 306 304 300 302 303 302 302 301 300 302 298 297 300 300 301 300 299
318 318 318 318 318 320 321 322 323 324 324 324 324 324 324 319 300 314 328 327 325 318 313 310 310 306 304 303 307 299 304 305 305 303 301 299 301 300 300 301 303 301 304 301 299
317 317 317 317 318 319 320 321 321 323 323 323 323 324 320 309 308 315 323 321 315 313 310 308 306 306 302 304 304 300 302 304 304 302 301 302 299 299 299 302 305 304 303 300 300
318 317 317 317 317 318 319 320 321 322 322 322 323 322 314 301 314 315 310 311 311 310 308 308 307 307 303 302 301 301 302 301 303 302 301 299 298 299 300 303 303 303 301 301 301
318 317 317 317 317 317 318 319 320 321 321 322 323 319 310 306 315 314 311 309 309 308 306 309 309 305 306 302 304 300 296 299 300 301 299 299 295 296 301 302 301 301 301 301 301
317 316 316 316 316 316 317 318 320 320 321 322 322 316 305 313 314 311 311 308 309 310 310 309 309 306 304 303 301 296 296 292 298 300 298 297 291 299 302 301 299 299 299 300 301
316 316 316 316 316 316 317 317 318 321 321 321 316 312 304 314 309 313 310 307 307 308 309 308 309 303 302 295 292 295 289 292 296 300 297 295 292 299 300 297 297 298 299 300 300
316 316 316 316 316 316 316 318 320 316 315 316 312 306 307 305 310 311 309 309 306 306 305 304 302 297 296 294 287 290 290 292 292 295 295 293 293 297 299 299 298 300 300 300 301
317 316 316 316 316 317 314 311 306 306 308 304 305 304 305 310 311 308 307 305 305 302 295 300 294 291 295 297 297 295 293 292 295 298 294 294 294 297 300 298 298 300 301 301 302
317 317 317 317 317 317 314 305 305 304 296 303 303 305 308 309 304 306 306 300 299 294 297 296 292 298 299 298 295 294 291 291 295 296 294 292 293 296 298 299 300 300 301 301 299
318 317 316 316 316 315 307 307 312 310 298 300 303 302 302 306 300 302 302 301 297 295 296 293 295 300 297 294 293 293 291 291 291 294 291 289 288 291 295 299 300 300 301 301 298
318 317 316 315 312 311 306 309 311 310 290 294 297 302 304 304 296 304 304 301 298 294 295 294 298 297 295 293 294 289 294 293 292 289 284 290 282 290 291 294 296 297 298 298 297
317 317 316 314 310 307 307 310 309 306 280 296 295 305 304 298 298 298 301 299 294 294 295 292 293 293 292 293 295 291 292 290 290 288 287 287 283 287 293 291 294 295 297 298 297
318 317 315 313 314 312 312 310 306 288 279 293 297 296 297 297 297 296 297 298 298 295 294 293 295 294 294 293 293 293 290 289 287 285 279 286 286 284 288 291 292 295 297 296 296
317 317 313 315 310 312 310 305 287 281 294 291 293 295 294 294 295 293 292 290 288 285 286 291 292 293 294 290 290 290 287 280 279 277 279 287 284 289 291 292 293 294 297 295 296
318 316 313 314 316 313 306 294 281 292 292 295 294 295 292 294 294 293 291 289 292 290 287 286 285 292 293 292 290 287 289 281 275 275 282 285 280 286 294 296 295 297 293 294 294
317 314 311 312 314 311 299 284 289 295 297 295 295 289 289 293 293 292 290 290 293 293 287 286 286 290 291 292 294 288 284 290 283 276 276 283 286 291 293 294 294 292 293 292 292
313 310 308 314 312 305 291 287 293 300 298 295 288 291 287 290 289 290 290 293 293 295 296 291 286 289 287 288 287 287 289 282 282 272 272 282 282 284 288 290 291 291 292 292 293
311 303 311 313 310 298 286 287 294 300 300 295 292 288 289 288 290 290 290 293 295 294 296 293 290 286 286 283 285 283 282 284 285 282 278 279 282 288 291 292 292 292 293 293 294
307 296 309 310 295 295 289 291 297 296 300 297 292 291 289 290 289 287 287 291 295 294 290 292 289 284 287 288 288 289 287 287 281 280 280 282 284 289 290 291 293 292 293 294 295
299 302 307 308 292 292 291 293 295 296 296 295 294 292 294 290 286 289 290 296 298 294 291 291 285 281 282 287 284 284 287 289 289 286 282 280 283 294 293 290 291 291 291 293 294
298 293 297 299 301 296 294 291 291 297 295 297 296 296 293 290 292 289 290 294 295 295 297 295 287 284 280 284 288 284 285 287 286 282 283 283 285 290 293 294 296 296 293 294 294
296 293 297 289 290 293 296 295 292 290 296 298 294 295 292 288 289 289 291 292 294 296 293 290 283 285 286 287 287 286 286 287 285 285 282 285 285 289 292 294 295 297 296 295 295
290 291 291 289 290 289 292 290 291 293 295 293 292 294 295 291 291 289 292 291 290 291 291 291 283 285 283 286 286 284 286 287 287 287 287 286 285 292 294 295 295 295 296 295 295
295 294 289 287 287 286 287 290 289 287 291 296 294 294 293 295 298 298 298 298 296 293 290 286 284 282 279 284 284 280 284 285 287 289 288 283 288 294 293 294 295 295 296 296 296
Wind_Speed
17 17 18 18 18 18 18 17 17 15 14 13 13 10 8 8 4 4 6 2 6 6 1 4 4 5 4 4 2 1 3 6 6 1 1 6 4 6 1 2 3 7 2 4 17
16 16 17 18 18 18 18 18 18 16 15 14 14 12 8 7 5 11 5 12 10 6 4 5 6 6 4 4 3 3 3 5 4 6 3 4 6 5 2 6 6 5 8 8 12
16 16 17 17 18 18 18 18 17 16 16 14 13 12 9 5 5 2 6 11 10 7 4 5 5 4 6 5 5 5 5 4 5 2 3 6 5 6 6 9 9 12 12 13 10
16 17 17 17 17 18 18 18 18 17 16 15 14 12 9 4 6 3 6 7 8 7 5 5 4 3 5 7 9 4 11 8 1 2 1 4 5 7 11 15 4 2 2 18 18
15 17 18 18 19 19 19 18 18 17 17 16 13 9 4 5 6 6 7 6 6 4 6 6 8 7 8 5 4 8 9 7 6 4 5 7 11 7 14 11 13 11 4 15 16
13 14 16 17 19 22 22 21 19 16 16 17 11 5 4 8 5 11 7 6 6 6 8 6 5 3 5 6 6 5 7 9 7 10 6 5 6 5 9 14 14 10 11 12 15
11 12 13 16 19 22 23 23 22 18 16 13 7 4 5 12 5 7 7 3 2 4 8 6 4 3 4 7 6 3 7 9 12 10 5 4 10 16 22 9 8 10 11 12 14
9 10 11 14 17 21 24 25 24 22 13 6 4 4 8 2 4 4 6 4 4 3 3 5 2 5 3 4 5 4 6 5 5 13 6 9 13 11 17 13 12 10 9 10 13
9 10 11 13 16 19 23 27 24 18 7 3 4 4 7 1 4 6 7 4 5 3 2 2 2 4 4 3 6 9 7 10 9 13 8 10 9 6 5 3 7 10 11 11 12
8 9 11 13 15 18 22 27 10 5 5 5 5 1 6 3 4 4 2 2 3 6 4 5 5 4 4 7 9 7 9 9 11 8 7 8 17 13 10 7 11 12 12 12 14
9 10 11 13 15 17 11 7 2 3 5 8 6 5 4 5 2 6 5 5 3 4 7 7 5 13 15 16 17 13 14 17 21 11 9 16 18 16 17 9 12 16 17 14 16
10 9 12 14 16 17 4 4 5 3 12 11 17 11 2 5 5 8 7 8 7 10 9 4 15 16 10 11 9 9 11 19 16 7 7 9 13 11 10 16 18 18 18 22 10
10 10 12 15 16 9 3 3 3 6 7 7 7 7 5 9 9 14 16 6 7 8 14 18 8 13 6 9 9 14 12 15 17 12 4 4 8 12 11 19 20 19 21 18 11
10 9 9 18 6 5 2 4 4 3 5 7 4 1 2 2 6 3 9 7 9 12 11 16 17 18 18 19 12 20 9 10 12 7 8 7 10 9 5 9 10 14 15 16 9
11 8 4 4 7 4 3 4 5 3 10 2 2 3 4 4 2 3 5 2 13 8 7 9 7 6 8 13 8 8 4 3 5 6 6 6 9 8 11 10 14 12 15 12 8
11 10 4 4 4 1 3 4 3 3 11 4 5 3 2 3 1 3 3 4 4 6 10 15 3 3 5 3 1 4 0 5 3 2 9 12 13 5 8 10 6 8 19 6 9
12 11 8 1 1 2 1 3 3 9 3 4 4 6 6 7 6 6 5 5 5 2 7 7 20 3 4 3 2 3 3 4 4 2 12 11 13 16 5 6 10 12 19 9 9
12 10 7 6 5 4 2 1 14 5 18 3 6 6 7 8 8 10 6 6 12 8 3 4 8 18 9 12 8 9 9 8 9 5 18 4 9 9 10 13 11 21 4 10 8
9 3 3 5 3 3 2 6 14 8 13 16 10 5 7 7 6 6 9 7 9 19 10 7 9 5 4 3 10 6 7 5 4 1 6 10 9 8 8 10 13 8 6 9 9
1 2 4 9 10 4 3 10 11 7 7 7 12 7 9 12 9 10 10 8 9 16 14 5 10 7 3 4 2 3 1 3 2 2 9 17 8 9 6 11 7 8 10 6 8
2 3 3 15 7 3 7 11 12 13 11 8 16 20 20 19 13 13 11 8 7 4 17 5 7 8 6 10 11 3 4 5 2 5 8 19 12 4 8 6 11 13 7 7 9
3 5 7 12 6 4 9 7 8 18 8 7 2 15 24 23 13 11 15 13 11 2 5 3 1 5 15 3 3 7 10 12 8 11 5 12 28 1 5 5 8 9 8 7 7
3 4 6 7 10 11 4 11 12 20 21 9 13 13 12 14 10 17 21 25 23 7 4 1 1 5 15 16 3 6 6 11 14 7 18 17 29 15 11 5 7 7 7 8 10
2 4 2 5 10 19 21 14 19 18 24 26 14 15 15 22 21 11 15 17 17 19 3 12 5 13 16 18 9 3 5 11 14 13 24 22 30 27 28 25 25 23 10 12 9
3 4 4 4 6 15 21 20 24 22 25 16 14 29 20 18 20 24 27 29 20 20 2 9 11 18 22 25 29 31 32 21 19 23 23 28 25 30 30 22 26 20 17 10 14
4 4 4 4 7 6 7 16 25 30 28 23 27 28 24 31 29 31 22 19 19 3 15 12 9 15 23 30 35 35 28 26 32 36 32 32 31 31 34 30 32 27 31 15 20
3 2 1 4 7 9 8 3 5 11 11 20 24 24 26 28 27 31 29 25 18 16 11 10 9 8 18 23 24 20 33 38 33 31 33 30 39 41 34 35 35 27 26 18 20
Wind_Direction
12 11 7 4 3 1 360 357 356 354 353 350 349 342 331 323 313 203 243 182 150 148 213 139 209 208 238 232 231 268 286 267 276 342 283 105 197 151 63 245 208 183 351 92 136
6 4 1 357 355 355 353 351 349 347 346 344 343 334 327 335 257 250 158 123 132 156 219 213 211 170 242 219 193 221 232 262 40 344 283 168 215 178 192 224 234 203 102 112 141
357 356 355 353 349 348 346 344 341 339 338 337 336 329 320 313 267 216 137 133 148 174 267 304 302 221 240 224 202 219 234 28 325 346 352 299 263 234 209 249 217 213 195 162 165
348 347 347 346 342 341 339 337 335 332 329 328 329 324 321 232 274 99 142 144 163 202 223 194 228 202 230 222 222 260 245 264 312 45 311 245 277 268 220 231 293 335 222 165 177
339 339 339 339 336 333 331 330 328 326 322 319 321 318 279 226 251 140 134 155 172 196 215 211 225 221 252 266 211 222 263 269 252 231 237 274 259 252 263 256 240 250 176 173 188
328 332 335 334 332 329 326 323 319 317 314 313 309 311 244 245 113 146 153 156 218 207 209 226 240 337 298 253 243 13 293 289 257 224 214 229 260 220 241 240 244 238 197 190 196
327 330 332 329 329 327 323 318 313 310 309 305 284 228 254 245 134 141 164 195 172 249 246 226 319 225 340 259 351 273 298 265 243 215 226 176 275 231 244 270 237 242 222 198 208
320 323 323 324 325 325 321 314 310 304 298 281 227 232 253 24 98 171 164 140 197 216 288 55 269 258 231 350 248 212 231 275 259 159 163 146 261 230 246 218 216 234 244 232 213
314 315 314 317 321 322 320 310 304 292 274 175 196 244 258 182 190 177 187 193 153 145 74 162 235 233 132 210 284 222 249 235 261 179 132 179 249 257 114 140 223 228 241 240 229
298 305 306 311 315 321 322 302 278 297 249 226 272 236 187 188 125 157 153 196 181 152 170 198 215 220 206 197 226 236 240 263 264 199 179 206 254 271 260 276 261 261 254 243 242
294 306 306 308 312 324 341 341 255 217 231 217 193 238 145 95 148 207 188 163 205 208 199 195 186 217 216 219 234 255 267 265 267 260 188 231 242 248 264 245 257 262 262 256 252
284 294 307 313 315 315 277 356 71 294 298 254 259 253 123 181 188 197 168 178 180 207 206 212 226 235 260 265 283 273 277 272 280 317 213 250 257 258 266 266 254 259 266 263 255
280 293 309 313 312 307 329 83 318 327 253 235 227 221 215 169 222 195 169 198 195 213 214 223 202 210 241 245 261 249 246 264 265 286 237 316 269 247 246 251 258 259 252 260 237
261 281 311 317 296 337 69 342 340 303 273 235 205 255 129 246 268 23 204 174 215 219 214 252 238 242 250 253 235 266 245 262 272 261 250 160 281 225 231 261 234 245 253 247 224
254 256 275 13 307 312 14 334 323 267 285 104 160 303 20 244 28 353 354 16 234 188 170 221 180 186 229 239 215 270 136 271 292 274 309 246 281 230 195 241 245 246 261 261 229
242 238 177 227 221 306 330 316 268 235 246 189 125 161 161 193 357 10 306 305 334 272 258 256 88 219 209 84 97 124 166 216 225 215 254 211 217 216 192 211 232 239 255 193 155
235 221 178 206 15 132 219 266 266 228 296 178 194 170 206 186 189 190 177 210 212 183 233 225 236 164 136 146 152 141 132 300 292 196 251 188 225 241 204 191 197 223 249 152 162
248 234 221 215 205 175 204 142 237 201 218 188 167 185 215 173 220 186 196 227 230 264 301 237 274 180 179 208 172 181 171 172 240 216 277 318 256 252 213 230 208 229 203 156 171
289 159 176 203 212 18 57 188 236 249 248 271 267 275 222 216 224 162 219 235 210 191 209 216 250 15 143 152 158 184 193 193 261 123 302 232 271 297 244 223 214 218 181 180 186
265 217 210 168 130 104 121 238 264 322 323 337 293 244 255 240 188 183 186 218 220 190 212 280 277 188 131 32 342 188 249 106 231 276 245 274 274 247 196 223 252 249 224 229 208
264 249 173 137 118 156 194 218 266 271 275 257 273 292 284 279 275 261 235 248 195 199 194 217 210 250 122 193 190 164 232 231 239 185 240 278 259 268 203 193 205 221 217 209 200
228 243 148 149 177 195 218 200 221 260 248 262 257 246 258 280 295 310 291 285 354 104 180 224 192 242 252 49 304 200 225 187 212 238 235 245 263 67 138 199 155 166 184 207 195
241 248 196 200 224 221 225 240 239 252 247 198 224 212 233 248 252 237 257 269 286 249 237 113 29 318 305 294 255 215 212 225 234 253 240 242 264 216 262 174 174 189 215 209 208
281 245 212 245 245 241 233 221 231 228 246 245 240 222 231 238 234 246 239 249 242 252 232 84 191 220 235 248 288 325 253 239 227 242 249 245 263 266 266 268 274 275 239 232 232
247 250 225 217 245 270 259 245 241 236 229 243 237 236 224 243 241 239 244 255 261 252 191 149 226 222 237 255 264 261 263 254 269 257 249 268 258 268 268 267 267 272 270 264 281
293 295 5 325 316 302 257 253 272 263 250 237 237 245 239 239 234 252 243 240 237 256 227 173 234 221 233 232 240 248 257 258 243 247 255 256 268 253 271 272 270 272 268 277 277
349 14 316 245 269 270 253 292 315 348 312 291 286 262 253 249 250 242 244 258 256 223 234 187 198 205 241 235 246 250 234 237 248 249 242 244 243 256 257 258 260 265 275 271 262